Location: Beulah
(33.1426°N, 83.0557°W)
Time: 04:25:47
(UTC+00:00)

Envisat - Pass Details

Date: 05 December 2021
Orbit: 764 x 766 km, 98.2° (Epoch: 23 January)

Event Time Altitude Azimuth Distance (km) Brightness Sun altitude
Rises 22:48:37 0° 202° (SSW) 3,216 7.0 -5.3°
Reaches altitude 10° 22:51:31 10° 219° (SW) 2,295 6.6 -5.9°
Maximum altitude 22:55:09 20° 265° (W) 1,721 6.0 -6.6°
Drops below altitude 10° 22:58:48 10° 312° (NW) 2,305 5.8 -7.3°
Sets 23:01:44 0° 329° (NNW) 3,236 6.4 -7.9°
